BTK6523 WATO-WIII

Flight info

Callsign BTK6523
Flight time N/A
Altitude 36000
Route TOGEM W42 MUBOT DCT DULOS T20 OKANG T4 FARIZ T6 KURUS
Aircraft A320/M-SDE3FGHIRWY/LB1

Departure

Time 2026-05-06 15:09
Airport Komodo Airport (WATO)

Arrival

Time N/A
Airport Soekarno-Hatta International Airport (WIII)
Time Latitude Longitude Altitude Speed Heading
2026-05-06 14:43 -8.48864 119.88793 234 ft 0 kts 263°
2026-05-06 15:00 -8.48861 119.88817 234 ft 4 kts 263°
2026-05-06 15:00 -8.48858 119.88837 234 ft 4 kts 223°
2026-05-06 15:00 -8.48836 119.88842 234 ft 3 kts 173°
2026-05-06 15:01 -8.48812 119.88839 234 ft 2 kts 173°
2026-05-06 15:01 -8.48810 119.88839 234 ft 0 kts 173°
2026-05-06 15:05 -8.48819 119.88840 234 ft 3 kts 173°
2026-05-06 15:05 -8.48864 119.88845 234 ft 9 kts 174°
2026-05-06 15:06 -8.48926 119.88853 234 ft 8 kts 172°
2026-05-06 15:06 -8.48977 119.88860 234 ft 7 kts 172°
2026-05-06 15:06 -8.49031 119.88867 234 ft 8 kts 173°
2026-05-06 15:06 -8.49080 119.88873 234 ft 6 kts 173°
2026-05-06 15:07 -8.49126 119.88879 234 ft 9 kts 173°
2026-05-06 15:07 -8.49186 119.88887 234 ft 8 kts 173°
2026-05-06 15:07 -8.49233 119.88898 233 ft 6 kts 147°
2026-05-06 15:07 -8.49245 119.88931 235 ft 5 kts 94°
2026-05-06 15:08 -8.49241 119.88963 235 ft 5 kts 81°
2026-05-06 15:08 -8.49224 119.88997 236 ft 5 kts 37°
2026-05-06 15:08 -8.49200 119.89002 233 ft 2 kts 359°
2026-05-06 15:08 -8.49195 119.89001 235 ft 1 kts 352°
2026-05-06 15:09 -8.49089 119.88985 236 ft 45 kts 352°
2026-05-06 15:09 -8.48523 119.88916 238 ft 115 kts 353°
2026-05-06 15:09 -8.47541 119.88787 240 ft 167 kts 352°
2026-05-06 15:09 -8.46342 119.88652 792 ft 171 kts 356°
2026-05-06 15:10 -8.45159 119.88613 1482 ft 170 kts
2026-05-06 15:10 -8.43960 119.88614 2081 ft 177 kts 354°
2026-05-06 15:10 -8.42803 119.88109 2476 ft 191 kts 315°
2026-05-06 15:10 -8.42102 119.86901 2768 ft 211 kts 294°
2026-05-06 15:11 -8.41467 119.85482 3061 ft 231 kts 295°
2026-05-06 15:11 -8.40789 119.83931 3316 ft 259 kts 294°
2026-05-06 15:11 -8.40040 119.82189 3726 ft 278 kts 295°
2026-05-06 15:11 -8.39232 119.80413 4599 ft 280 kts 296°
2026-05-06 15:12 -8.38390 119.78622 5400 ft 285 kts 297°
2026-05-06 15:12 -8.38119 119.78050 5662 ft 286 kts 296°
2026-05-06 15:14 -8.38000 119.77792 5782 ft 286 kts 295°
2026-05-06 15:14 -8.37387 119.75868 6574 ft 291 kts 278°
2026-05-06 15:15 -8.37512 119.73830 7339 ft 295 kts 251°
2026-05-06 15:15 -8.38400 119.71967 8136 ft 296 kts 240°
2026-05-06 15:15 -8.39319 119.70319 8866 ft 297 kts 240°
2026-05-06 15:15 -8.39800 119.69459 9228 ft 299 kts 240°
2026-05-06 15:16 -8.40826 119.67618 9983 ft 302 kts 240°
2026-05-06 15:16 -8.41870 119.65737 10433 ft 316 kts 240°
2026-05-06 15:16 -8.42982 119.63729 10606 ft 339 kts 240°
2026-05-06 15:16 -8.44167 119.61592 10872 ft 356 kts 240°
2026-05-06 15:17 -8.45388 119.59396 11433 ft 360 kts 240°
2026-05-06 15:17 -8.46619 119.57185 12067 ft 363 kts 240°
2026-05-06 15:17 -8.47861 119.54955 12708 ft 365 kts 240°
2026-05-06 15:17 -8.49112 119.52711 13351 ft 368 kts 240°
2026-05-06 15:18 -8.50367 119.50453 13945 ft 370 kts 240°
2026-05-06 15:18 -8.51612 119.48211 14483 ft 372 kts 240°
2026-05-06 15:18 -8.52883 119.45923 15013 ft 375 kts 240°
2026-05-06 15:18 -8.54160 119.43626 15535 ft 377 kts 240°
2026-05-06 15:19 -8.55401 119.41283 16051 ft 379 kts 246°
2026-05-06 15:19 -8.56232 119.38747 16543 ft 382 kts 258°
2026-05-06 15:19 -8.56541 119.36080 17040 ft 385 kts 269°
2026-05-06 15:19 -8.56438 119.33372 17531 ft 387 kts 272°
2026-05-06 15:20 -8.56310 119.30685 18016 ft 389 kts 272°
2026-05-06 15:20 -8.56180 119.27944 18461 ft 392 kts 272°
2026-05-06 15:20 -8.56052 119.25188 18874 ft 394 kts 272°
2026-05-06 15:20 -8.55925 119.22414 19276 ft 396 kts 272°
2026-05-06 15:21 -8.55796 119.19625 19674 ft 399 kts 272°
2026-05-06 15:21 -8.55664 119.16822 20070 ft 401 kts 273°
2026-05-06 15:21 -8.55529 119.14000 20464 ft 403 kts 273°
2026-05-06 15:21 -8.55395 119.11158 20865 ft 406 kts 273°
2026-05-06 15:22 -8.55263 119.08341 21245 ft 408 kts 273°
2026-05-06 15:22 -8.55133 119.05591 21609 ft 410 kts 273°
2026-05-06 15:22 -8.54998 119.02702 21987 ft 413 kts 273°
2026-05-06 15:22 -8.54863 118.99796 22354 ft 415 kts 273°
2026-05-06 15:23 -8.54729 118.96872 22724 ft 418 kts 273°
2026-05-06 15:23 -8.54593 118.93934 23084 ft 420 kts 273°
2026-05-06 15:23 -8.54455 118.90979 23444 ft 423 kts 273°
2026-05-06 15:23 -8.54315 118.88005 23744 ft 425 kts 273°
2026-05-06 15:24 -8.54175 118.85013 24053 ft 427 kts 273°
2026-05-06 15:24 -8.54036 118.82056 24360 ft 428 kts 273°
2026-05-06 15:24 -8.53894 118.79047 24661 ft 430 kts 273°
2026-05-06 15:24 -8.53749 118.76033 24979 ft 431 kts 273°
2026-05-06 15:25 -8.53601 118.73004 25277 ft 432 kts 273°
2026-05-06 15:25 -8.53454 118.69965 25582 ft 434 kts 272°
2026-05-06 15:25 -8.53311 118.66916 25880 ft 435 kts 272°
2026-05-06 15:25 -8.53173 118.63859 26166 ft 436 kts 272°
2026-05-06 15:26 -8.53036 118.60794 26453 ft 438 kts 272°
2026-05-06 15:26 -8.52898 118.57717 26742 ft 439 kts 272°
2026-05-06 15:26 -8.52760 118.54672 27020 ft 441 kts 272°
2026-05-06 15:26 -8.52619 118.51578 27303 ft 442 kts 272°
2026-05-06 15:27 -8.52476 118.48471 27581 ft 443 kts 272°
2026-05-06 15:27 -8.52333 118.45355 27865 ft 445 kts 272°
2026-05-06 15:27 -8.52191 118.42229 28137 ft 446 kts 272°
2026-05-06 15:27 -8.52050 118.39094 28396 ft 447 kts 272°
2026-05-06 15:28 -8.51906 118.35949 28653 ft 449 kts 272°
2026-05-06 15:28 -8.51760 118.32802 28893 ft 450 kts 272°
2026-05-06 15:28 -8.51613 118.29638 29138 ft 451 kts 272°
2026-05-06 15:28 -8.51467 118.26465 29376 ft 453 kts 272°
2026-05-06 15:29 -8.51322 118.23326 29614 ft 454 kts 272°
2026-05-06 15:29 -8.51174 118.20133 29850 ft 456 kts 272°
2026-05-06 15:29 -8.51024 118.16932 30070 ft 457 kts 272°
2026-05-06 15:29 -8.50875 118.13730 30357 ft 456 kts 272°
2026-05-06 15:30 -8.50727 118.10534 30637 ft 455 kts 272°
2026-05-06 15:30 -8.50581 118.07347 30906 ft 454 kts 272°
2026-05-06 15:30 -8.50436 118.04173 31196 ft 453 kts 272°
2026-05-06 15:30 -8.50292 118.01032 31466 ft 452 kts 272°
2026-05-06 15:31 -8.50143 117.97867 31750 ft 452 kts 272°
2026-05-06 15:31 -8.49992 117.94700 32042 ft 451 kts 272°
2026-05-06 15:31 -8.49844 117.91537 32318 ft 450 kts 272°
2026-05-06 15:32 -8.49549 117.85225 32900 ft 449 kts 272°
2026-05-06 15:32 -8.49399 117.82076 33189 ft 448 kts 272°
2026-05-06 15:32 -8.49251 117.78932 33484 ft 448 kts 272°
2026-05-06 15:32 -8.49103 117.75793 33782 ft 447 kts 272°
2026-05-06 15:33 -8.48956 117.72666 34053 ft 446 kts 272°
2026-05-06 15:33 -8.48812 117.69580 34303 ft 445 kts 272°
2026-05-06 15:33 -8.48665 117.66455 34545 ft 445 kts 272°
2026-05-06 15:33 -8.48517 117.63336 34790 ft 444 kts 272°
2026-05-06 15:34 -8.48367 117.60222 35036 ft 443 kts 272°
2026-05-06 15:34 -8.48217 117.57112 35282 ft 443 kts 272°
2026-05-06 15:34 -8.48066 117.54010 35525 ft 442 kts 272°
2026-05-06 15:34 -8.47915 117.50918 35755 ft 441 kts 272°
2026-05-06 15:35 -8.47765 117.47822 35897 ft 441 kts 272°
2026-05-06 15:35 -8.47617 117.44724 35937 ft 442 kts 272°
2026-05-06 15:35 -8.46997 117.38608 35934 ft 442 kts 282°
2026-05-06 15:36 -8.45614 117.32557 35938 ft 442 kts 282°
2026-05-06 15:36 -8.44229 117.26505 35932 ft 442 kts 282°
2026-05-06 15:37 -8.42837 117.20453 35929 ft 442 kts 282°
2026-05-06 15:37 -8.41460 117.14447 35927 ft 442 kts 282°
2026-05-06 15:38 -8.40074 117.08395 35926 ft 442 kts 282°
2026-05-06 15:38 -8.38686 117.02347 35925 ft 442 kts 282°
2026-05-06 15:39 -8.37302 116.96295 35918 ft 442 kts 282°
2026-05-06 15:39 -8.35912 116.90245 35921 ft 442 kts 282°
2026-05-06 15:40 -8.34526 116.84237 35924 ft 442 kts 282°
2026-05-06 15:40 -8.33128 116.78194 35923 ft 442 kts 282°
2026-05-06 15:41 -8.31742 116.72135 35922 ft 442 kts 282°
2026-05-06 15:41 -8.30362 116.66128 35925 ft 442 kts 282°
2026-05-06 15:42 -8.28966 116.60076 35926 ft 443 kts 282°
2026-05-06 15:42 -8.27565 116.54026 35928 ft 442 kts 282°
2026-05-06 15:43 -8.26162 116.47978 35928 ft 442 kts 282°
2026-05-06 15:43 -8.24774 116.41973 35925 ft 442 kts 282°
2026-05-06 15:44 -8.24556 116.41029 35923 ft 442 kts 282°
2026-05-06 15:44 -8.23677 116.37223 35920 ft 442 kts 282°
2026-05-06 15:45 -8.22278 116.31175 35918 ft 443 kts 282°
2026-05-06 15:45 -8.20887 116.25163 35912 ft 443 kts 282°
2026-05-06 15:46 -8.19487 116.19114 35906 ft 443 kts 282°
2026-05-06 15:46 -8.18086 116.13053 35904 ft 444 kts 282°
2026-05-06 15:47 -8.16679 116.06990 35901 ft 444 kts 282°
2026-05-06 15:47 -8.15270 116.00927 35895 ft 444 kts 282°
2026-05-06 15:48 -8.13873 115.94906 35890 ft 444 kts 282°
2026-05-06 15:48 -8.12492 115.88832 35893 ft 444 kts 281°
2026-05-06 15:49 -8.11251 115.82731 35895 ft 444 kts 280°
2026-05-06 15:49 -8.10048 115.76626 35898 ft 444 kts 280°
2026-05-06 15:50 -8.08821 115.70566 35897 ft 444 kts 281°
2026-05-06 15:50 -8.07560 115.64475 35898 ft 444 kts 281°
2026-05-06 15:51 -8.06301 115.58374 35903 ft 444 kts 281°
2026-05-06 15:51 -8.05058 115.52270 35905 ft 444 kts 281°
2026-05-06 15:52 -8.03817 115.46214 35904 ft 444 kts 281°
2026-05-06 15:52 -8.02563 115.40117 35905 ft 444 kts 281°
2026-05-06 15:53 -8.01311 115.34023 35906 ft 444 kts 281°
2026-05-06 15:53 -8.00069 115.27997 35908 ft 444 kts 280°
2026-05-06 15:54 -7.98816 115.21906 35905 ft 443 kts 281°
2026-05-06 15:54 -7.97562 115.15818 35899 ft 444 kts 281°
2026-05-06 15:55 -7.96306 115.09716 35899 ft 444 kts 281°
2026-05-06 15:55 -7.95054 115.03654 35900 ft 444 kts 281°
2026-05-06 15:56 -7.93793 114.97551 35899 ft 444 kts 281°
2026-05-06 15:56 -7.92529 114.91452 35894 ft 444 kts 281°
2026-05-06 15:57 -7.91266 114.85350 35888 ft 444 kts 281°
2026-05-06 15:57 -7.90002 114.79250 35891 ft 445 kts 281°
2026-05-06 15:58 -7.88746 114.73183 35891 ft 445 kts 281°
2026-05-06 15:58 -7.87478 114.67073 35889 ft 445 kts 281°
2026-05-06 15:59 -7.86215 114.60959 35893 ft 445 kts 281°
2026-05-06 15:59 -7.84952 114.54888 35898 ft 445 kts 281°
2026-05-06 16:00 -7.83683 114.48774 35901 ft 445 kts 281°
2026-05-06 16:00 -7.82415 114.42659 35904 ft 446 kts 281°
2026-05-06 16:01 -7.81141 114.36549 35909 ft 446 kts 281°
2026-05-06 16:01 -7.79868 114.30432 35908 ft 446 kts 281°
2026-05-06 16:02 -7.78598 114.24360 35910 ft 446 kts 281°
2026-05-06 16:02 -7.77323 114.18245 35916 ft 446 kts 281°
2026-05-06 16:03 -7.76050 114.12130 35915 ft 446 kts 281°
2026-05-06 16:03 -7.73851 114.06301 35909 ft 448 kts 300°
2026-05-06 16:04 -7.70468 114.01075 35899 ft 448 kts 302°
2026-05-06 16:04 -7.67048 113.95822 35893 ft 449 kts 302°
2026-05-06 16:05 -7.63620 113.90556 35890 ft 449 kts 302°
2026-05-06 16:05 -7.60184 113.85286 35886 ft 450 kts 302°
2026-05-06 16:06 -7.56779 113.80045 35880 ft 450 kts 302°
2026-05-06 16:06 -7.53346 113.74767 35875 ft 450 kts 302°
2026-05-06 16:07 -7.49895 113.69491 35871 ft 451 kts 302°
2026-05-06 16:07 -7.46444 113.64202 35874 ft 452 kts 302°
2026-05-06 16:08 -7.43000 113.58909 35870 ft 452 kts 302°
2026-05-06 16:08 -7.39570 113.53649 35871 ft 452 kts 302°
2026-05-06 16:09 -7.36103 113.48355 35876 ft 453 kts 302°
2026-05-06 16:09 -7.32657 113.43092 35883 ft 452 kts 302°
2026-05-06 16:10 -7.29219 113.37827 35881 ft 452 kts 302°
2026-05-06 16:10 -7.25764 113.32540 35877 ft 452 kts 302°
2026-05-06 16:11 -7.22300 113.27242 35877 ft 453 kts 302°
2026-05-06 16:11 -7.18834 113.21934 35877 ft 454 kts 302°
2026-05-06 16:12 -7.15365 113.16626 35880 ft 454 kts 303°
2026-05-06 16:12 -7.11915 113.11356 35881 ft 454 kts 303°
2026-05-06 16:13 -7.08443 113.06055 35878 ft 454 kts 303°
2026-05-06 16:13 -7.04965 113.00751 35883 ft 454 kts 303°
2026-05-06 16:14 -7.01490 112.95446 35881 ft 454 kts 303°
2026-05-06 16:14 -6.98040 112.90173 35883 ft 454 kts 303°
2026-05-06 16:15 -6.94559 112.84867 35884 ft 454 kts 303°
2026-05-06 16:15 -6.91068 112.79562 35883 ft 454 kts 303°
2026-05-06 16:16 -6.87585 112.74253 35888 ft 455 kts 303°
2026-05-06 16:16 -6.84125 112.68976 35892 ft 455 kts 303°
2026-05-06 16:17 -6.80639 112.63661 35898 ft 455 kts 303°
2026-05-06 16:17 -6.77154 112.58353 35902 ft 455 kts 303°
2026-05-06 16:18 -6.73666 112.53039 35906 ft 455 kts 303°
2026-05-06 16:18 -6.70176 112.47731 35907 ft 455 kts 303°
2026-05-06 16:19 -6.66713 112.42463 35903 ft 455 kts 303°
2026-05-06 16:19 -6.63222 112.37159 35899 ft 454 kts 303°
2026-05-06 16:20 -6.59735 112.31861 35897 ft 454 kts 303°
2026-05-06 16:20 -6.56259 112.26571 35897 ft 453 kts 303°
2026-05-06 16:21 -6.52799 112.21316 35891 ft 454 kts 303°
2026-05-06 16:21 -6.49310 112.16023 35895 ft 454 kts 303°
2026-05-06 16:22 -6.45834 112.10732 35893 ft 454 kts 303°
2026-05-06 16:22 -6.42351 112.05431 35894 ft 454 kts 303°
2026-05-06 16:23 -6.38890 112.00175 35891 ft 454 kts 303°
2026-05-06 16:23 -6.35395 111.94882 35890 ft 454 kts 303°
2026-05-06 16:24 -6.31906 111.89585 35887 ft 454 kts 303°
2026-05-06 16:24 -6.28415 111.84292 35888 ft 454 kts 303°
2026-05-06 16:25 -6.24942 111.79035 35889 ft 454 kts 303°
2026-05-06 16:25 -6.21447 111.73740 35884 ft 455 kts 303°
2026-05-06 16:26 -6.17946 111.68441 35883 ft 455 kts 303°
2026-05-06 16:26 -6.14449 111.63137 35878 ft 455 kts 303°
2026-05-06 16:27 -6.10952 111.57840 35879 ft 455 kts 303°
2026-05-06 16:27 -6.07468 111.52570 35882 ft 455 kts 303°
2026-05-06 16:28 -6.03964 111.47268 35880 ft 455 kts 304°
2026-05-06 16:28 -6.00461 111.41968 35881 ft 455 kts 304°
2026-05-06 16:29 -5.97557 111.37566 35882 ft 455 kts 304°
2026-05-06 16:29 -5.93492 111.31413 35882 ft 454 kts 304°
2026-05-06 16:30 -5.91147 111.27879 35878 ft 454 kts 304°
2026-05-06 16:30 -5.88772 111.23196 35877 ft 455 kts 288°
2026-05-06 16:30 -5.88228 111.21163 35877 ft 455 kts 281°
2026-05-06 16:31 -5.87862 111.16933 35873 ft 456 kts 268°
2026-05-06 16:31 -5.88030 111.14827 35864 ft 456 kts 264°
2026-05-06 16:31 -5.88851 111.07462 35863 ft 457 kts 264°
2026-05-06 16:32 -5.89432 111.02141 35872 ft 457 kts 264°
2026-05-06 16:32 -5.90135 110.95838 35869 ft 458 kts 264°
2026-05-06 16:33 -5.90839 110.89484 35872 ft 458 kts 264°
2026-05-06 16:34 -5.91897 110.79946 35871 ft 458 kts 264°
2026-05-06 16:34 -5.92725 110.72550 35875 ft 458 kts 264°
2026-05-06 16:35 -5.93313 110.67257 35875 ft 458 kts 264°
2026-05-06 16:35 -5.94130 110.59854 35880 ft 459 kts 264°
2026-05-06 16:36 -5.94714 110.54563 35882 ft 459 kts 264°
2026-05-06 16:36 -5.95523 110.47147 35884 ft 459 kts 264°
2026-05-06 16:37 -5.96113 110.41807 35885 ft 460 kts 264°
2026-05-06 16:37 -5.96509 110.35454 35886 ft 459 kts 271°
2026-05-06 16:38 -5.96507 110.29038 35889 ft 460 kts 271°
2026-05-06 16:38 -5.96508 110.22619 35891 ft 459 kts 271°
2026-05-06 16:39 -5.96510 110.16205 35896 ft 460 kts 271°
2026-05-06 16:39 -5.96501 110.09824 35895 ft 459 kts 271°
2026-05-06 16:40 -5.96497 110.03407 35891 ft 459 kts 271°
2026-05-06 16:40 -5.96495 109.96989 35889 ft 459 kts 271°
2026-05-06 16:41 -5.96491 109.90570 35888 ft 460 kts 271°
2026-05-06 16:41 -5.96481 109.84189 35891 ft 460 kts 271°
2026-05-06 16:42 -5.96477 109.77764 35891 ft 460 kts 271°
2026-05-06 16:42 -5.96479 109.71333 35889 ft 460 kts 271°
2026-05-06 16:43 -5.96471 109.64912 35888 ft 460 kts 271°
2026-05-06 16:43 -5.96465 109.58487 35889 ft 460 kts 271°
2026-05-06 16:44 -5.96461 109.52105 35886 ft 460 kts 271°
2026-05-06 16:44 -5.96448 109.45679 35889 ft 460 kts 271°
2026-05-06 16:45 -5.96432 109.38213 35889 ft 460 kts 271°
2026-05-06 16:45 -5.96422 109.32835 35890 ft 460 kts 271°
2026-05-06 16:46 -5.96410 109.26453 35894 ft 460 kts 271°
2026-05-06 16:46 -5.96398 109.20029 35891 ft 460 kts 271°
2026-05-06 16:47 -5.96392 109.13604 35890 ft 460 kts 271°
2026-05-06 16:47 -5.96382 109.07181 35890 ft 460 kts 271°
2026-05-06 16:48 -5.96366 109.00801 35889 ft 460 kts 271°
2026-05-06 16:48 -5.96348 108.94370 35894 ft 460 kts 271°
2026-05-06 16:49 -5.96332 108.87945 35893 ft 461 kts 271°
2026-05-06 16:49 -5.96317 108.81511 35894 ft 461 kts 271°
2026-05-06 16:50 -5.96297 108.75122 35894 ft 461 kts 271°
2026-05-06 16:50 -5.96278 108.68676 35892 ft 461 kts 271°
2026-05-06 16:51 -5.96258 108.62238 35891 ft 461 kts 271°
2026-05-06 16:51 -5.96241 108.55792 35894 ft 461 kts 271°
2026-05-06 16:52 -5.96218 108.49389 35889 ft 462 kts 271°
2026-05-06 16:52 -5.96772 108.42952 35891 ft 464 kts 264°
2026-05-06 16:53 -5.97324 108.38227 35894 ft 464 kts 264°
2026-05-06 16:53 -5.98070 108.31785 35895 ft 464 kts 264°
2026-05-06 16:54 -5.98808 108.25387 35897 ft 464 kts 264°
2026-05-06 16:54 -5.99551 108.18948 35895 ft 464 kts 264°
2026-05-06 16:55 -6.00287 108.12514 35892 ft 464 kts 264°
2026-05-06 16:55 -6.01028 108.06073 35891 ft 464 kts 264°
2026-05-06 16:56 -6.01776 107.99666 35893 ft 465 kts 264°
2026-05-06 16:56 -6.02512 107.93219 35892 ft 464 kts 264°
2026-05-06 16:56 -6.02878 107.89996 35658 ft 465 kts 264°
2026-05-06 16:57 -6.03251 107.86742 34558 ft 475 kts 264°
2026-05-06 16:57 -6.04519 107.75669 30997 ft 498 kts 264°
2026-05-06 16:58 -6.04907 107.72270 30183 ft 498 kts 264°
2026-05-06 16:58 -6.05301 107.68820 29370 ft 496 kts 264°
2026-05-06 16:58 -6.05692 107.65400 28657 ft 490 kts 264°
2026-05-06 16:58 -6.06078 107.62011 27945 ft 486 kts 264°